Location: Unspecified
(51.0000°N, 12.0000°E)
Time: 09:38:29
(UTC+01:00)

N. Korean satellite - Pass Details

Date: 22 October 2019
Orbit: 456 x 506 km, 97.2° (Epoch: 14 November)

Event Time Altitude Azimuth Distance (km) Brightness Sun altitude
Rises 05:55:12 0° 32° (NNE) 2,564 10.8 -18.1°
Reaches altitude 10° 05:58:36 10° 67° (ENE) 1,689 10.4 -17.6°
Maximum altitude 05:59:52 12° 88° (E) 1,599 10.5 -17.4°
Drops below altitude 10° 06:01:09 10° 108° (ESE) 1,693 10.4 -17.2°
Sets 06:04:33 0° 143° (SE) 2,579 10.7 -16.6°
